<?xml version="1.0" encoding="UTF-8" standalone="no" ?>
<gpx xmlns="http://www.topografix.com/GPX/1/1" xmlns:xsi="http://www.w3.org/2001/XMLSchema-instance" xsi:schemaLocation="http://www.topografix.com/GPX/1/1 http://www.topografix.com/GPX/1/1/gpx.xsd" version="1.1" creator="VisuGPX - https://www.visugpx.com">
  <metadata>
    <name>Coueron_LacBeaulieuChabossiere_8-11km</name>
    <desc><![CDATA[gnerando idor:6470769_9134354_9679440]]></desc>
  </metadata>
  <wpt lat="47.2089" lon="-1.71941">
    <ele>11</ele>
    <name><![CDATA[0001563]]></name>
    <type><![CDATA[Point de départ]]></type>
  </wpt>
  <wpt lat="47.21443" lon="-1.73669">
    <ele>12.18</ele>
    <name><![CDATA[0001564]]></name>
    <desc><![CDATA[<p><br /><h3>Nom: Segment: 1</h3><br />Heure de départ: 03/17/2024 08:56<br/>Heure d'arrivée: 03/17/2024 11:14<br/>Distance: 9,4km (02:18)<br/>Temps déplacement: 01:57<br/>Vitesse moyenne: 4,07 km/h<br/>Vitesse moyenne mouv.: 4,68 km/h<br/>Vitesse Max.: 6,8 km/h<br/>Altitude minimale: 1 m<br/>Altitude maximale: 33 m<br/>Vitesse de montée: 193,2 m/h<br/>Vitesse de descente: -150,9 m/h<br/>Gain d'altitude: 143 m<br/>Perte d'altitude: -140 m<br/>Temps de montée: 00:44<br/>Temps de descente: 00:56<br/></p>]]></desc>
    <type><![CDATA[Point d'arrivée]]></type>
  </wpt>
  <wpt lat="47.21469" lon="-1.73649">
    <ele>14</ele>
    <name><![CDATA[0001565]]></name>
    <type><![CDATA[Point de départ]]></type>
  </wpt>
  <wpt lat="47.20891" lon="-1.71989">
    <ele>10.97</ele>
    <name><![CDATA[0001566]]></name>
    <desc><![CDATA[<p><br /><h3>Nom: Segment: 2</h3><br />Heure de départ: 03/17/2024 11:50<br/>Heure d'arrivée: 03/17/2024 12:10<br/>Distance: 1,8km (00:19)<br/>Temps déplacement: 00:19<br/>Vitesse moyenne: 5,39 km/h<br/>Vitesse moyenne mouv.: 5,42 km/h<br/>Vitesse Max.: 6,61 km/h<br/>Altitude minimale: 3 m<br/>Altitude maximale: 15 m<br/>Vitesse de montée: 138,9 m/h<br/>Vitesse de descente: -140,5 m/h<br/>Gain d'altitude: 16 m<br/>Perte d'altitude: -20 m<br/>Temps de montée: 00:07<br/>Temps de descente: 00:08<br/></p>]]></desc>
    <type><![CDATA[Point d'arrivée]]></type>
  </wpt>
  <trk>
    <name><![CDATA[Coueron_Chabossiere_8.4km-9134354]]></name>
    <extensions>
      <line xmlns="http://www.topografix.com/GPX/gpx_style/0/2">
        <color>0000FF</color>
        <width>4</width>
      </line>
    </extensions>
    <trkseg>
      <trkpt lat="47.2144" lon="-1.6828">
        <ele>25</ele>
        <time>2023-11-01T14:50:51Z</time>
      </trkpt>
      <trkpt lat="47.21437" lon="-1.68253">
        <ele>25</ele>
        <time>2023-11-01T14:51:16Z</time>
      </trkpt>
      <trkpt lat="47.21443" lon="-1.68228">
        <ele>25</ele>
        <time>2023-11-01T14:51:40Z</time>
      </trkpt>
      <trkpt lat="47.2146" lon="-1.6822">
        <ele>26</ele>
        <time>2023-11-01T14:52:04Z</time>
      </trkpt>
      <trkpt lat="47.21478" lon="-1.68214">
        <ele>26</ele>
        <time>2023-11-01T14:52:28Z</time>
      </trkpt>
      <trkpt lat="47.21495" lon="-1.68201">
        <ele>26</ele>
        <time>2023-11-01T14:52:54Z</time>
      </trkpt>
      <trkpt lat="47.21513" lon="-1.68195">
        <ele>27</ele>
        <time>2023-11-01T14:53:18Z</time>
      </trkpt>
      <trkpt lat="47.21528" lon="-1.6818">
        <ele>28</ele>
        <time>2023-11-01T14:53:43Z</time>
      </trkpt>
      <trkpt lat="47.2153" lon="-1.68152">
        <ele>28</ele>
        <time>2023-11-01T14:54:08Z</time>
      </trkpt>
      <trkpt lat="47.2153" lon="-1.68125">
        <ele>28</ele>
        <time>2023-11-01T14:54:33Z</time>
      </trkpt>
      <trkpt lat="47.21537" lon="-1.68099">
        <ele>29</ele>
        <time>2023-11-01T14:54:58Z</time>
      </trkpt>
      <trkpt lat="47.21541" lon="-1.68073">
        <ele>29</ele>
        <time>2023-11-01T14:55:22Z</time>
      </trkpt>
      <trkpt lat="47.21545" lon="-1.68046">
        <ele>29</ele>
        <time>2023-11-01T14:55:47Z</time>
      </trkpt>
      <trkpt lat="47.21551" lon="-1.6802">
        <ele>29</ele>
        <time>2023-11-01T14:56:12Z</time>
      </trkpt>
      <trkpt lat="47.21556" lon="-1.67993">
        <ele>29</ele>
        <time>2023-11-01T14:56:37Z</time>
      </trkpt>
      <trkpt lat="47.21563" lon="-1.67967">
        <ele>29</ele>
        <time>2023-11-01T14:57:03Z</time>
      </trkpt>
      <trkpt lat="47.2157" lon="-1.67941">
        <ele>30</ele>
        <time>2023-11-01T14:57:28Z</time>
      </trkpt>
      <trkpt lat="47.21588" lon="-1.67933">
        <ele>30</ele>
        <time>2023-11-01T14:57:53Z</time>
      </trkpt>
      <trkpt lat="47.21607" lon="-1.67938">
        <ele>30</ele>
        <time>2023-11-01T14:58:19Z</time>
      </trkpt>
      <trkpt lat="47.21626" lon="-1.67939">
        <ele>30</ele>
        <time>2023-11-01T14:58:44Z</time>
      </trkpt>
      <trkpt lat="47.21645" lon="-1.67944">
        <ele>30</ele>
        <time>2023-11-01T14:59:10Z</time>
      </trkpt>
      <trkpt lat="47.21663" lon="-1.67946">
        <ele>29</ele>
        <time>2023-11-01T14:59:34Z</time>
      </trkpt>
      <trkpt lat="47.2168" lon="-1.67955">
        <ele>29</ele>
        <time>2023-11-01T14:59:58Z</time>
      </trkpt>
      <trkpt lat="47.21699" lon="-1.67951">
        <ele>29</ele>
        <time>2023-11-01T15:00:24Z</time>
      </trkpt>
      <trkpt lat="47.21716" lon="-1.67942">
        <ele>29</ele>
        <time>2023-11-01T15:00:48Z</time>
      </trkpt>
      <trkpt lat="47.21721" lon="-1.67916">
        <ele>28</ele>
        <time>2023-11-01T15:01:13Z</time>
      </trkpt>
      <trkpt lat="47.2172" lon="-1.67889">
        <ele>28</ele>
        <time>2023-11-01T15:01:37Z</time>
      </trkpt>
      <trkpt lat="47.21725" lon="-1.67807">
        <ele>26</ele>
        <time>2023-11-01T15:02:52Z</time>
      </trkpt>
      <trkpt lat="47.21725" lon="-1.6778">
        <ele>25</ele>
        <time>2023-11-01T15:03:16Z</time>
      </trkpt>
      <trkpt lat="47.21727" lon="-1.67753">
        <ele>24</ele>
        <time>2023-11-01T15:03:41Z</time>
      </trkpt>
      <trkpt lat="47.21728" lon="-1.67726">
        <ele>24</ele>
        <time>2023-11-01T15:04:05Z</time>
      </trkpt>
      <trkpt lat="47.2173" lon="-1.67699">
        <ele>23</ele>
        <time>2023-11-01T15:04:30Z</time>
      </trkpt>
      <trkpt lat="47.21733" lon="-1.67671">
        <ele>22</ele>
        <time>2023-11-01T15:04:56Z</time>
      </trkpt>
      <trkpt lat="47.21734" lon="-1.67644">
        <ele>22</ele>
        <time>2023-11-01T15:05:20Z</time>
      </trkpt>
      <trkpt lat="47.21738" lon="-1.67618">
        <ele>21</ele>
        <time>2023-11-01T15:05:44Z</time>
      </trkpt>
      <trkpt lat="47.21752" lon="-1.67602">
        <ele>20</ele>
        <time>2023-11-01T15:06:08Z</time>
      </trkpt>
      <trkpt lat="47.2179" lon="-1.67606">
        <ele>20</ele>
        <time>2023-11-01T15:06:59Z</time>
      </trkpt>
      <trkpt lat="47.21801" lon="-1.67584">
        <ele>19</ele>
        <time>2023-11-01T15:07:24Z</time>
      </trkpt>
      <trkpt lat="47.2179" lon="-1.67563">
        <ele>19</ele>
        <time>2023-11-01T15:07:48Z</time>
      </trkpt>
      <trkpt lat="47.21772" lon="-1.67554">
        <ele>18</ele>
        <time>2023-11-01T15:08:13Z</time>
      </trkpt>
      <trkpt lat="47.21756" lon="-1.67542">
        <ele>18</ele>
        <time>2023-11-01T15:08:37Z</time>
      </trkpt>
      <trkpt lat="47.21737" lon="-1.67537">
        <ele>17</ele>
        <time>2023-11-01T15:09:03Z</time>
      </trkpt>
      <trkpt lat="47.21735" lon="-1.6751">
        <ele>16</ele>
        <time>2023-11-01T15:09:27Z</time>
      </trkpt>
      <trkpt lat="47.21732" lon="-1.67484">
        <ele>14</ele>
        <time>2023-11-01T15:09:51Z</time>
      </trkpt>
      <trkpt lat="47.21728" lon="-1.67458">
        <ele>13</ele>
        <time>2023-11-01T15:10:15Z</time>
      </trkpt>
      <trkpt lat="47.21718" lon="-1.67435">
        <ele>12</ele>
        <time>2023-11-01T15:10:40Z</time>
      </trkpt>
      <trkpt lat="47.21719" lon="-1.67408">
        <ele>12</ele>
        <time>2023-11-01T15:11:05Z</time>
      </trkpt>
      <trkpt lat="47.21736" lon="-1.67419">
        <ele>12</ele>
        <time>2023-11-01T15:11:29Z</time>
      </trkpt>
      <trkpt lat="47.2175" lon="-1.67435">
        <ele>13</ele>
        <time>2023-11-01T15:11:53Z</time>
      </trkpt>
      <trkpt lat="47.21768" lon="-1.67444">
        <ele>14</ele>
        <time>2023-11-01T15:12:18Z</time>
      </trkpt>
      <trkpt lat="47.21785" lon="-1.67456">
        <ele>16</ele>
        <time>2023-11-01T15:12:44Z</time>
      </trkpt>
      <trkpt lat="47.21802" lon="-1.67465">
        <ele>17</ele>
        <time>2023-11-01T15:13:08Z</time>
      </trkpt>
      <trkpt lat="47.21817" lon="-1.67481">
        <ele>17</ele>
        <time>2023-11-01T15:13:32Z</time>
      </trkpt>
      <trkpt lat="47.21836" lon="-1.67477">
        <ele>18</ele>
        <time>2023-11-01T15:13:58Z</time>
      </trkpt>
      <trkpt lat="47.21855" lon="-1.67478">
        <ele>19</ele>
        <time>2023-11-01T15:14:23Z</time>
      </trkpt>
      <trkpt lat="47.21872" lon="-1.67467">
        <ele>20</ele>
        <time>2023-11-01T15:14:48Z</time>
      </trkpt>
      <trkpt lat="47.21888" lon="-1.67454">
        <ele>21</ele>
        <time>2023-11-01T15:15:13Z</time>
      </trkpt>
      <trkpt lat="47.21906" lon="-1.67449">
        <ele>21</ele>
        <time>2023-11-01T15:15:37Z</time>
      </trkpt>
      <trkpt lat="47.21924" lon="-1.67443">
        <ele>22</ele>
        <time>2023-11-01T15:16:02Z</time>
      </trkpt>
      <trkpt lat="47.21942" lon="-1.67435">
        <ele>22</ele>
        <time>2023-11-01T15:16:27Z</time>
      </trkpt>
      <trkpt lat="47.2196" lon="-1.67429">
        <ele>22</ele>
        <time>2023-11-01T15:16:51Z</time>
      </trkpt>
      <trkpt lat="47.21979" lon="-1.67423">
        <ele>22</ele>
        <time>2023-11-01T15:17:17Z</time>
      </trkpt>
      <trkpt lat="47.21997" lon="-1.67422">
        <ele>22</ele>
        <time>2023-11-01T15:17:41Z</time>
      </trkpt>
      <trkpt lat="47.22016" lon="-1.67417">
        <ele>22</ele>
        <time>2023-11-01T15:18:07Z</time>
      </trkpt>
      <trkpt lat="47.22034" lon="-1.67414">
        <ele>21</ele>
        <time>2023-11-01T15:18:31Z</time>
      </trkpt>
      <trkpt lat="47.22052" lon="-1.67415">
        <ele>21</ele>
        <time>2023-11-01T15:18:55Z</time>
      </trkpt>
      <trkpt lat="47.2207" lon="-1.67409">
        <ele>21</ele>
        <time>2023-11-01T15:19:20Z</time>
      </trkpt>
      <trkpt lat="47.22088" lon="-1.67405">
        <ele>20</ele>
        <time>2023-11-01T15:19:44Z</time>
      </trkpt>
      <trkpt lat="47.22107" lon="-1.67408">
        <ele>20</ele>
        <time>2023-11-01T15:20:10Z</time>
      </trkpt>
      <trkpt lat="47.22125" lon="-1.67406">
        <ele>19</ele>
        <time>2023-11-01T15:20:34Z</time>
      </trkpt>
      <trkpt lat="47.22143" lon="-1.67413">
        <ele>19</ele>
        <time>2023-11-01T15:20:59Z</time>
      </trkpt>
      <trkpt lat="47.2216" lon="-1.67425">
        <ele>18</ele>
        <time>2023-11-01T15:21:24Z</time>
      </trkpt>
      <trkpt lat="47.22178" lon="-1.67433">
        <ele>18</ele>
        <time>2023-11-01T15:21:49Z</time>
      </trkpt>
      <trkpt lat="47.22196" lon="-1.67437">
        <ele>18</ele>
        <time>2023-11-01T15:22:13Z</time>
      </trkpt>
      <trkpt lat="47.22248" lon="-1.67469">
        <ele>19</ele>
        <time>2023-11-01T15:23:28Z</time>
      </trkpt>
      <trkpt lat="47.22266" lon="-1.67475">
        <ele>20</ele>
        <time>2023-11-01T15:23:53Z</time>
      </trkpt>
      <trkpt lat="47.22282" lon="-1.67462">
        <ele>21</ele>
        <time>2023-11-01T15:24:17Z</time>
      </trkpt>
      <trkpt lat="47.223" lon="-1.67454">
        <ele>22</ele>
        <time>2023-11-01T15:24:42Z</time>
      </trkpt>
      <trkpt lat="47.22318" lon="-1.67451">
        <ele>23</ele>
        <time>2023-11-01T15:25:07Z</time>
      </trkpt>
      <trkpt lat="47.22337" lon="-1.67451">
        <ele>24</ele>
        <time>2023-11-01T15:25:32Z</time>
      </trkpt>
      <trkpt lat="47.22355" lon="-1.67452">
        <ele>25</ele>
        <time>2023-11-01T15:25:56Z</time>
      </trkpt>
      <trkpt lat="47.22373" lon="-1.67441">
        <ele>25</ele>
        <time>2023-11-01T15:26:22Z</time>
      </trkpt>
      <trkpt lat="47.22391" lon="-1.6743">
        <ele>26</ele>
        <time>2023-11-01T15:26:48Z</time>
      </trkpt>
      <trkpt lat="47.22427" lon="-1.67416">
        <ele>27</ele>
        <time>2023-11-01T15:27:38Z</time>
      </trkpt>
      <trkpt lat="47.22446" lon="-1.6741">
        <ele>27</ele>
        <time>2023-11-01T15:28:04Z</time>
      </trkpt>
      <trkpt lat="47.22465" lon="-1.67406">
        <ele>28</ele>
        <time>2023-11-01T15:28:29Z</time>
      </trkpt>
      <trkpt lat="47.22483" lon="-1.67407">
        <ele>29</ele>
        <time>2023-11-01T15:28:53Z</time>
      </trkpt>
      <trkpt lat="47.22501" lon="-1.67406">
        <ele>30</ele>
        <time>2023-11-01T15:29:17Z</time>
      </trkpt>
      <trkpt lat="47.2252" lon="-1.67408">
        <ele>30</ele>
        <time>2023-11-01T15:29:43Z</time>
      </trkpt>
      <trkpt lat="47.22539" lon="-1.67404">
        <ele>30</ele>
        <time>2023-11-01T15:30:08Z</time>
      </trkpt>
      <trkpt lat="47.22557" lon="-1.674">
        <ele>31</ele>
        <time>2023-11-01T15:30:33Z</time>
      </trkpt>
      <trkpt lat="47.22576" lon="-1.67398">
        <ele>31</ele>
        <time>2023-11-01T15:30:58Z</time>
      </trkpt>
      <trkpt lat="47.22594" lon="-1.67395">
        <ele>32</ele>
        <time>2023-11-01T15:31:22Z</time>
      </trkpt>
      <trkpt lat="47.2263" lon="-1.67411">
        <ele>34</ele>
        <time>2023-11-01T15:32:12Z</time>
      </trkpt>
      <trkpt lat="47.22646" lon="-1.67423">
        <ele>35</ele>
        <time>2023-11-01T15:32:36Z</time>
      </trkpt>
      <trkpt lat="47.22665" lon="-1.67425">
        <ele>36</ele>
        <time>2023-11-01T15:33:02Z</time>
      </trkpt>
      <trkpt lat="47.22684" lon="-1.67431">
        <ele>37</ele>
        <time>2023-11-01T15:33:28Z</time>
      </trkpt>
      <trkpt lat="47.22702" lon="-1.67438">
        <ele>38</ele>
        <time>2023-11-01T15:33:53Z</time>
      </trkpt>
      <trkpt lat="47.22719" lon="-1.67449">
        <ele>39</ele>
        <time>2023-11-01T15:34:17Z</time>
      </trkpt>
      <trkpt lat="47.22734" lon="-1.67464">
        <ele>40</ele>
        <time>2023-11-01T15:34:42Z</time>
      </trkpt>
      <trkpt lat="47.22749" lon="-1.6748">
        <ele>41</ele>
        <time>2023-11-01T15:35:06Z</time>
      </trkpt>
      <trkpt lat="47.22777" lon="-1.67513">
        <ele>43</ele>
        <time>2023-11-01T15:35:54Z</time>
      </trkpt>
      <trkpt lat="47.22792" lon="-1.6753">
        <ele>44</ele>
        <time>2023-11-01T15:36:19Z</time>
      </trkpt>
      <trkpt lat="47.22802" lon="-1.67553">
        <ele>44</ele>
        <time>2023-11-01T15:36:44Z</time>
      </trkpt>
      <trkpt lat="47.22804" lon="-1.6758">
        <ele>44</ele>
        <time>2023-11-01T15:37:09Z</time>
      </trkpt>
      <trkpt lat="47.22807" lon="-1.67607">
        <ele>44</ele>
        <time>2023-11-01T15:37:34Z</time>
      </trkpt>
      <trkpt lat="47.22816" lon="-1.67632">
        <ele>45</ele>
        <time>2023-11-01T15:37:59Z</time>
      </trkpt>
      <trkpt lat="47.22826" lon="-1.67653">
        <ele>46</ele>
        <time>2023-11-01T15:38:22Z</time>
      </trkpt>
      <trkpt lat="47.2284" lon="-1.67672">
        <ele>47</ele>
        <time>2023-11-01T15:38:48Z</time>
      </trkpt>
      <trkpt lat="47.22854" lon="-1.67688">
        <ele>47</ele>
        <time>2023-11-01T15:39:12Z</time>
      </trkpt>
      <trkpt lat="47.22869" lon="-1.67704">
        <ele>48</ele>
        <time>2023-11-01T15:39:36Z</time>
      </trkpt>
      <trkpt lat="47.22883" lon="-1.67722">
        <ele>48</ele>
        <time>2023-11-01T15:40:01Z</time>
      </trkpt>
      <trkpt lat="47.22898" lon="-1.67739">
        <ele>48</ele>
        <time>2023-11-01T15:40:26Z</time>
      </trkpt>
      <trkpt lat="47.22914" lon="-1.67754">
        <ele>48</ele>
        <time>2023-11-01T15:40:52Z</time>
      </trkpt>
      <trkpt lat="47.22927" lon="-1.67773">
        <ele>48</ele>
        <time>2023-11-01T15:41:16Z</time>
      </trkpt>
      <trkpt lat="47.22939" lon="-1.67792">
        <ele>48</ele>
        <time>2023-11-01T15:41:40Z</time>
      </trkpt>
      <trkpt lat="47.22967" lon="-1.67828">
        <ele>49</ele>
        <time>2023-11-01T15:42:29Z</time>
      </trkpt>
      <trkpt lat="47.22981" lon="-1.67847">
        <ele>49</ele>
        <time>2023-11-01T15:42:55Z</time>
      </trkpt>
      <trkpt lat="47.22991" lon="-1.6787">
        <ele>48</ele>
        <time>2023-11-01T15:43:19Z</time>
      </trkpt>
      <trkpt lat="47.23011" lon="-1.67918">
        <ele>48</ele>
        <time>2023-11-01T15:44:10Z</time>
      </trkpt>
      <trkpt lat="47.23018" lon="-1.67945">
        <ele>49</ele>
        <time>2023-11-01T15:44:37Z</time>
      </trkpt>
      <trkpt lat="47.23022" lon="-1.67971">
        <ele>49</ele>
        <time>2023-11-01T15:45:01Z</time>
      </trkpt>
      <trkpt lat="47.23035" lon="-1.68025">
        <ele>50</ele>
        <time>2023-11-01T15:45:53Z</time>
      </trkpt>
      <trkpt lat="47.2304" lon="-1.68053">
        <ele>50</ele>
        <time>2023-11-01T15:46:19Z</time>
      </trkpt>
      <trkpt lat="47.23039" lon="-1.6808">
        <ele>50</ele>
        <time>2023-11-01T15:46:43Z</time>
      </trkpt>
      <trkpt lat="47.23044" lon="-1.68107">
        <ele>49</ele>
        <time>2023-11-01T15:47:09Z</time>
      </trkpt>
      <trkpt lat="47.23046" lon="-1.68134">
        <ele>48</ele>
        <time>2023-11-01T15:47:33Z</time>
      </trkpt>
      <trkpt lat="47.23048" lon="-1.68161">
        <ele>48</ele>
        <time>2023-11-01T15:47:58Z</time>
      </trkpt>
      <trkpt lat="47.23058" lon="-1.68184">
        <ele>48</ele>
        <time>2023-11-01T15:48:23Z</time>
      </trkpt>
      <trkpt lat="47.23069" lon="-1.68206">
        <ele>48</ele>
        <time>2023-11-01T15:48:47Z</time>
      </trkpt>
      <trkpt lat="47.23078" lon="-1.68229">
        <ele>48</ele>
        <time>2023-11-01T15:49:12Z</time>
      </trkpt>
      <trkpt lat="47.23085" lon="-1.68254">
        <ele>48</ele>
        <time>2023-11-01T15:49:36Z</time>
      </trkpt>
      <trkpt lat="47.23093" lon="-1.68278">
        <ele>48</ele>
        <time>2023-11-01T15:50:00Z</time>
      </trkpt>
      <trkpt lat="47.23095" lon="-1.68305">
        <ele>47</ele>
        <time>2023-11-01T15:50:25Z</time>
      </trkpt>
      <trkpt lat="47.23099" lon="-1.68331">
        <ele>47</ele>
        <time>2023-11-01T15:50:49Z</time>
      </trkpt>
      <trkpt lat="47.23105" lon="-1.68357">
        <ele>47</ele>
        <time>2023-11-01T15:51:14Z</time>
      </trkpt>
      <trkpt lat="47.23106" lon="-1.68386">
        <ele>47</ele>
        <time>2023-11-01T15:51:40Z</time>
      </trkpt>
      <trkpt lat="47.2311" lon="-1.68442">
        <ele>47</ele>
        <time>2023-11-01T15:52:31Z</time>
      </trkpt>
      <trkpt lat="47.23112" lon="-1.68469">
        <ele>47</ele>
        <time>2023-11-01T15:52:56Z</time>
      </trkpt>
      <trkpt lat="47.23111" lon="-1.68497">
        <ele>47</ele>
        <time>2023-11-01T15:53:21Z</time>
      </trkpt>
      <trkpt lat="47.23112" lon="-1.68524">
        <ele>47</ele>
        <time>2023-11-01T15:53:46Z</time>
      </trkpt>
      <trkpt lat="47.23117" lon="-1.68551">
        <ele>47</ele>
        <time>2023-11-01T15:54:11Z</time>
      </trkpt>
      <trkpt lat="47.23127" lon="-1.68574">
        <ele>47</ele>
        <time>2023-11-01T15:54:36Z</time>
      </trkpt>
      <trkpt lat="47.23141" lon="-1.68594">
        <ele>47</ele>
        <time>2023-11-01T15:55:02Z</time>
      </trkpt>
      <trkpt lat="47.23153" lon="-1.68616">
        <ele>47</ele>
        <time>2023-11-01T15:55:27Z</time>
      </trkpt>
      <trkpt lat="47.23166" lon="-1.68635">
        <ele>47</ele>
        <time>2023-11-01T15:55:52Z</time>
      </trkpt>
      <trkpt lat="47.23176" lon="-1.68659">
        <ele>47</ele>
        <time>2023-11-01T15:56:17Z</time>
      </trkpt>
      <trkpt lat="47.23161" lon="-1.68677">
        <ele>47</ele>
        <time>2023-11-01T15:56:43Z</time>
      </trkpt>
      <trkpt lat="47.23143" lon="-1.68684">
        <ele>46</ele>
        <time>2023-11-01T15:57:08Z</time>
      </trkpt>
      <trkpt lat="47.23126" lon="-1.68695">
        <ele>45</ele>
        <time>2023-11-01T15:57:33Z</time>
      </trkpt>
      <trkpt lat="47.23108" lon="-1.68704">
        <ele>44</ele>
        <time>2023-11-01T15:57:58Z</time>
      </trkpt>
      <trkpt lat="47.23088" lon="-1.68712">
        <ele>44</ele>
        <time>2023-11-01T15:58:26Z</time>
      </trkpt>
      <trkpt lat="47.23071" lon="-1.68718">
        <ele>43</ele>
        <time>2023-11-01T15:58:49Z</time>
      </trkpt>
      <trkpt lat="47.23035" lon="-1.68734">
        <ele>42</ele>
        <time>2023-11-01T15:59:39Z</time>
      </trkpt>
      <trkpt lat="47.23018" lon="-1.68742">
        <ele>42</ele>
        <time>2023-11-01T16:00:03Z</time>
      </trkpt>
      <trkpt lat="47.2302" lon="-1.6877">
        <ele>41</ele>
        <time>2023-11-01T16:00:29Z</time>
      </trkpt>
      <trkpt lat="47.23034" lon="-1.68787">
        <ele>41</ele>
        <time>2023-11-01T16:00:53Z</time>
      </trkpt>
      <trkpt lat="47.23046" lon="-1.68809">
        <ele>41</ele>
        <time>2023-11-01T16:01:18Z</time>
      </trkpt>
      <trkpt lat="47.23055" lon="-1.68833">
        <ele>41</ele>
        <time>2023-11-01T16:01:43Z</time>
      </trkpt>
      <trkpt lat="47.23058" lon="-1.68861">
        <ele>41</ele>
        <time>2023-11-01T16:02:09Z</time>
      </trkpt>
      <trkpt lat="47.23064" lon="-1.68887">
        <ele>41</ele>
        <time>2023-11-01T16:02:34Z</time>
      </trkpt>
      <trkpt lat="47.23068" lon="-1.68914">
        <ele>41</ele>
        <time>2023-11-01T16:02:59Z</time>
      </trkpt>
      <trkpt lat="47.23073" lon="-1.68939">
        <ele>41</ele>
        <time>2023-11-01T16:03:23Z</time>
      </trkpt>
      <trkpt lat="47.2308" lon="-1.68965">
        <ele>40</ele>
        <time>2023-11-01T16:03:48Z</time>
      </trkpt>
      <trkpt lat="47.23086" lon="-1.68992">
        <ele>40</ele>
        <time>2023-11-01T16:04:14Z</time>
      </trkpt>
      <trkpt lat="47.23096" lon="-1.69015">
        <ele>40</ele>
        <time>2023-11-01T16:04:38Z</time>
      </trkpt>
      <trkpt lat="47.23104" lon="-1.6904">
        <ele>39</ele>
        <time>2023-11-01T16:05:03Z</time>
      </trkpt>
      <trkpt lat="47.2311" lon="-1.69066">
        <ele>39</ele>
        <time>2023-11-01T16:05:28Z</time>
      </trkpt>
      <trkpt lat="47.23122" lon="-1.69087">
        <ele>38</ele>
        <time>2023-11-01T16:05:53Z</time>
      </trkpt>
      <trkpt lat="47.23133" lon="-1.6911">
        <ele>38</ele>
        <time>2023-11-01T16:06:19Z</time>
      </trkpt>
      <trkpt lat="47.23124" lon="-1.69133">
        <ele>37</ele>
        <time>2023-11-01T16:06:43Z</time>
      </trkpt>
      <trkpt lat="47.2311" lon="-1.69151">
        <ele>37</ele>
        <time>2023-11-01T16:07:08Z</time>
      </trkpt>
      <trkpt lat="47.23096" lon="-1.69169">
        <ele>36</ele>
        <time>2023-11-01T16:07:32Z</time>
      </trkpt>
      <trkpt lat="47.23082" lon="-1.69187">
        <ele>36</ele>
        <time>2023-11-01T16:07:57Z</time>
      </trkpt>
      <trkpt lat="47.23068" lon="-1.69204">
        <ele>36</ele>
        <time>2023-11-01T16:08:21Z</time>
      </trkpt>
      <trkpt lat="47.23045" lon="-1.69247">
        <ele>35</ele>
        <time>2023-11-01T16:09:11Z</time>
      </trkpt>
      <trkpt lat="47.23034" lon="-1.69269">
        <ele>35</ele>
        <time>2023-11-01T16:09:36Z</time>
      </trkpt>
      <trkpt lat="47.23028" lon="-1.69295">
        <ele>35</ele>
        <time>2023-11-01T16:10:01Z</time>
      </trkpt>
      <trkpt lat="47.23024" lon="-1.69322">
        <ele>35</ele>
        <time>2023-11-01T16:10:26Z</time>
      </trkpt>
      <trkpt lat="47.23021" lon="-1.6935">
        <ele>35</ele>
        <time>2023-11-01T16:10:51Z</time>
      </trkpt>
      <trkpt lat="47.23013" lon="-1.69373">
        <ele>35</ele>
        <time>2023-11-01T16:11:15Z</time>
      </trkpt>
      <trkpt lat="47.23002" lon="-1.69397">
        <ele>34</ele>
        <time>2023-11-01T16:11:41Z</time>
      </trkpt>
      <trkpt lat="47.22992" lon="-1.69419">
        <ele>34</ele>
        <time>2023-11-01T16:12:05Z</time>
      </trkpt>
      <trkpt lat="47.22944" lon="-1.69467">
        <ele>30</ele>
        <time>2023-11-01T16:13:22Z</time>
      </trkpt>
      <trkpt lat="47.22929" lon="-1.69484">
        <ele>29</ele>
        <time>2023-11-01T16:13:48Z</time>
      </trkpt>
      <trkpt lat="47.229" lon="-1.69519">
        <ele>26</ele>
        <time>2023-11-01T16:14:38Z</time>
      </trkpt>
      <trkpt lat="47.22885" lon="-1.69536">
        <ele>25</ele>
        <time>2023-11-01T16:15:03Z</time>
      </trkpt>
      <trkpt lat="47.22871" lon="-1.69553">
        <ele>23</ele>
        <time>2023-11-01T16:15:27Z</time>
      </trkpt>
      <trkpt lat="47.22856" lon="-1.69569">
        <ele>22</ele>
        <time>2023-11-01T16:15:52Z</time>
      </trkpt>
      <trkpt lat="47.22842" lon="-1.69587">
        <ele>20</ele>
        <time>2023-11-01T16:16:17Z</time>
      </trkpt>
      <trkpt lat="47.22828" lon="-1.69606">
        <ele>18</ele>
        <time>2023-11-01T16:16:42Z</time>
      </trkpt>
      <trkpt lat="47.22814" lon="-1.69623">
        <ele>17</ele>
        <time>2023-11-01T16:17:06Z</time>
      </trkpt>
      <trkpt lat="47.22815" lon="-1.6965">
        <ele>15</ele>
        <time>2023-11-01T16:17:31Z</time>
      </trkpt>
      <trkpt lat="47.22822" lon="-1.69676">
        <ele>14</ele>
        <time>2023-11-01T16:17:56Z</time>
      </trkpt>
      <trkpt lat="47.22828" lon="-1.69702">
        <ele>14</ele>
        <time>2023-11-01T16:18:21Z</time>
      </trkpt>
      <trkpt lat="47.22839" lon="-1.69724">
        <ele>15</ele>
        <time>2023-11-01T16:18:46Z</time>
      </trkpt>
      <trkpt lat="47.22849" lon="-1.69748">
        <ele>15</ele>
        <time>2023-11-01T16:19:11Z</time>
      </trkpt>
      <trkpt lat="47.22864" lon="-1.69765">
        <ele>17</ele>
        <time>2023-11-01T16:19:37Z</time>
      </trkpt>
      <trkpt lat="47.2288" lon="-1.69777">
        <ele>18</ele>
        <time>2023-11-01T16:20:01Z</time>
      </trkpt>
      <trkpt lat="47.22852" lon="-1.69801">
        <ele>15</ele>
        <time>2023-11-01T16:20:44Z</time>
      </trkpt>
      <trkpt lat="47.22825" lon="-1.69827">
        <ele>13</ele>
        <time>2023-11-01T16:21:27Z</time>
      </trkpt>
      <trkpt lat="47.22793" lon="-1.69843">
        <ele>12</ele>
        <time>2023-11-01T16:22:12Z</time>
      </trkpt>
      <trkpt lat="47.22761" lon="-1.69868">
        <ele>10</ele>
        <time>2023-11-01T16:23:00Z</time>
      </trkpt>
      <trkpt lat="47.22743" lon="-1.69899">
        <ele>10</ele>
        <time>2023-11-01T16:23:37Z</time>
      </trkpt>
      <trkpt lat="47.22715" lon="-1.69916">
        <ele>9</ele>
        <time>2023-11-01T16:24:18Z</time>
      </trkpt>
      <trkpt lat="47.22681" lon="-1.6992">
        <ele>8</ele>
        <time>2023-11-01T16:25:03Z</time>
      </trkpt>
      <trkpt lat="47.2268" lon="-1.69968">
        <ele>7</ele>
        <time>2023-11-01T16:25:47Z</time>
      </trkpt>
      <trkpt lat="47.22677" lon="-1.70024">
        <ele>7</ele>
        <time>2023-11-01T16:26:38Z</time>
      </trkpt>
      <trkpt lat="47.22649" lon="-1.69984">
        <ele>7</ele>
        <time>2023-11-01T16:27:30Z</time>
      </trkpt>
      <trkpt lat="47.22651" lon="-1.69988">
        <ele>7</ele>
        <time>2023-11-01T16:27:34Z</time>
      </trkpt>
      <trkpt lat="47.22648" lon="-1.70004">
        <ele>7</ele>
        <time>2023-11-01T16:27:49Z</time>
      </trkpt>
      <trkpt lat="47.22661" lon="-1.70028">
        <ele>7</ele>
        <time>2023-11-01T16:28:17Z</time>
      </trkpt>
      <trkpt lat="47.22671" lon="-1.70063">
        <ele>6</ele>
        <time>2023-11-01T16:28:51Z</time>
      </trkpt>
      <trkpt lat="47.22675" lon="-1.70102">
        <ele>7</ele>
        <time>2023-11-01T16:29:27Z</time>
      </trkpt>
      <trkpt lat="47.22682" lon="-1.70159">
        <ele>7</ele>
        <time>2023-11-01T16:30:20Z</time>
      </trkpt>
      <trkpt lat="47.22688" lon="-1.70217">
        <ele>7</ele>
        <time>2023-11-01T16:31:13Z</time>
      </trkpt>
      <trkpt lat="47.22688" lon="-1.70255">
        <ele>7</ele>
        <time>2023-11-01T16:31:47Z</time>
      </trkpt>
      <trkpt lat="47.22693" lon="-1.70289">
        <ele>6</ele>
        <time>2023-11-01T16:32:19Z</time>
      </trkpt>
      <trkpt lat="47.22667" lon="-1.70301">
        <ele>5</ele>
        <time>2023-11-01T16:32:55Z</time>
      </trkpt>
      <trkpt lat="47.22649" lon="-1.70303">
        <ele>6</ele>
        <time>2023-11-01T16:33:19Z</time>
      </trkpt>
      <trkpt lat="47.22636" lon="-1.70285">
        <ele>6</ele>
        <time>2023-11-01T16:33:43Z</time>
      </trkpt>
      <trkpt lat="47.22619" lon="-1.70296">
        <ele>6</ele>
        <time>2023-11-01T16:34:08Z</time>
      </trkpt>
      <trkpt lat="47.226" lon="-1.70295">
        <ele>6</ele>
        <time>2023-11-01T16:34:33Z</time>
      </trkpt>
      <trkpt lat="47.22581" lon="-1.70293">
        <ele>7</ele>
        <time>2023-11-01T16:34:59Z</time>
      </trkpt>
      <trkpt lat="47.22563" lon="-1.70287">
        <ele>7</ele>
        <time>2023-11-01T16:35:23Z</time>
      </trkpt>
      <trkpt lat="47.22547" lon="-1.70274">
        <ele>6</ele>
        <time>2023-11-01T16:35:48Z</time>
      </trkpt>
      <trkpt lat="47.2253" lon="-1.70263">
        <ele>6</ele>
        <time>2023-11-01T16:36:12Z</time>
      </trkpt>
      <trkpt lat="47.22512" lon="-1.70256">
        <ele>6</ele>
        <time>2023-11-01T16:36:37Z</time>
      </trkpt>
      <trkpt lat="47.22497" lon="-1.7024">
        <ele>6</ele>
        <time>2023-11-01T16:37:02Z</time>
      </trkpt>
      <trkpt lat="47.22483" lon="-1.70222">
        <ele>7</ele>
        <time>2023-11-01T16:37:27Z</time>
      </trkpt>
      <trkpt lat="47.2247" lon="-1.70203">
        <ele>7</ele>
        <time>2023-11-01T16:37:51Z</time>
      </trkpt>
      <trkpt lat="47.22457" lon="-1.70184">
        <ele>8</ele>
        <time>2023-11-01T16:38:16Z</time>
      </trkpt>
      <trkpt lat="47.22446" lon="-1.70162">
        <ele>8</ele>
        <time>2023-11-01T16:38:40Z</time>
      </trkpt>
      <trkpt lat="47.22433" lon="-1.70142">
        <ele>7</ele>
        <time>2023-11-01T16:39:06Z</time>
      </trkpt>
      <trkpt lat="47.22418" lon="-1.70125">
        <ele>7</ele>
        <time>2023-11-01T16:39:31Z</time>
      </trkpt>
      <trkpt lat="47.224" lon="-1.70115">
        <ele>7</ele>
        <time>2023-11-01T16:39:56Z</time>
      </trkpt>
      <trkpt lat="47.22384" lon="-1.701">
        <ele>6</ele>
        <time>2023-11-01T16:40:22Z</time>
      </trkpt>
      <trkpt lat="47.22368" lon="-1.70087">
        <ele>6</ele>
        <time>2023-11-01T16:40:46Z</time>
      </trkpt>
      <trkpt lat="47.22351" lon="-1.70076">
        <ele>6</ele>
        <time>2023-11-01T16:41:11Z</time>
      </trkpt>
      <trkpt lat="47.22332" lon="-1.70069">
        <ele>7</ele>
        <time>2023-11-01T16:41:37Z</time>
      </trkpt>
      <trkpt lat="47.22314" lon="-1.70058">
        <ele>7</ele>
        <time>2023-11-01T16:42:03Z</time>
      </trkpt>
      <trkpt lat="47.22298" lon="-1.70041">
        <ele>6</ele>
        <time>2023-11-01T16:42:29Z</time>
      </trkpt>
      <trkpt lat="47.22286" lon="-1.70019">
        <ele>6</ele>
        <time>2023-11-01T16:42:55Z</time>
      </trkpt>
      <trkpt lat="47.22275" lon="-1.69997">
        <ele>6</ele>
        <time>2023-11-01T16:43:20Z</time>
      </trkpt>
      <trkpt lat="47.2226" lon="-1.69982">
        <ele>6</ele>
        <time>2023-11-01T16:43:44Z</time>
      </trkpt>
      <trkpt lat="47.22245" lon="-1.69967">
        <ele>6</ele>
        <time>2023-11-01T16:44:08Z</time>
      </trkpt>
      <trkpt lat="47.22228" lon="-1.69955">
        <ele>5</ele>
        <time>2023-11-01T16:44:33Z</time>
      </trkpt>
      <trkpt lat="47.22212" lon="-1.69943">
        <ele>5</ele>
        <time>2023-11-01T16:44:57Z</time>
      </trkpt>
      <trkpt lat="47.22193" lon="-1.6994">
        <ele>5</ele>
        <time>2023-11-01T16:45:23Z</time>
      </trkpt>
      <trkpt lat="47.22174" lon="-1.69942">
        <ele>5</ele>
        <time>2023-11-01T16:45:48Z</time>
      </trkpt>
      <trkpt lat="47.22156" lon="-1.69949">
        <ele>5</ele>
        <time>2023-11-01T16:46:13Z</time>
      </trkpt>
      <trkpt lat="47.22141" lon="-1.69969">
        <ele>5</ele>
        <time>2023-11-01T16:46:40Z</time>
      </trkpt>
      <trkpt lat="47.22103" lon="-1.70029">
        <ele>4</ele>
        <time>2023-11-01T16:47:54Z</time>
      </trkpt>
      <trkpt lat="47.22088" lon="-1.70045">
        <ele>3</ele>
        <time>2023-11-01T16:48:19Z</time>
      </trkpt>
      <trkpt lat="47.22079" lon="-1.70068">
        <ele>3</ele>
        <time>2023-11-01T16:48:43Z</time>
      </trkpt>
      <trkpt lat="47.22068" lon="-1.70091">
        <ele>3</ele>
        <time>2023-11-01T16:49:09Z</time>
      </trkpt>
      <trkpt lat="47.22062" lon="-1.70116">
        <ele>3</ele>
        <time>2023-11-01T16:49:33Z</time>
      </trkpt>
      <trkpt lat="47.22044" lon="-1.70119">
        <ele>3</ele>
        <time>2023-11-01T16:49:57Z</time>
      </trkpt>
      <trkpt lat="47.22034" lon="-1.70094">
        <ele>4</ele>
        <time>2023-11-01T16:50:23Z</time>
      </trkpt>
      <trkpt lat="47.22027" lon="-1.70069">
        <ele>5</ele>
        <time>2023-11-01T16:50:48Z</time>
      </trkpt>
      <trkpt lat="47.22017" lon="-1.70044">
        <ele>5</ele>
        <time>2023-11-01T16:51:14Z</time>
      </trkpt>
      <trkpt lat="47.22007" lon="-1.70021">
        <ele>6</ele>
        <time>2023-11-01T16:51:39Z</time>
      </trkpt>
      <trkpt lat="47.22003" lon="-1.69995">
        <ele>7</ele>
        <time>2023-11-01T16:52:03Z</time>
      </trkpt>
      <trkpt lat="47.22002" lon="-1.69967">
        <ele>9</ele>
        <time>2023-11-01T16:52:28Z</time>
      </trkpt>
      <trkpt lat="47.2201" lon="-1.69915">
        <ele>12</ele>
        <time>2023-11-01T16:53:17Z</time>
      </trkpt>
      <trkpt lat="47.22016" lon="-1.69889">
        <ele>14</ele>
        <time>2023-11-01T16:53:41Z</time>
      </trkpt>
      <trkpt lat="47.22034" lon="-1.69841">
        <ele>17</ele>
        <time>2023-11-01T16:54:31Z</time>
      </trkpt>
      <trkpt lat="47.22042" lon="-1.69816">
        <ele>17</ele>
        <time>2023-11-01T16:54:56Z</time>
      </trkpt>
      <trkpt lat="47.22053" lon="-1.69793">
        <ele>17</ele>
        <time>2023-11-01T16:55:22Z</time>
      </trkpt>
      <trkpt lat="47.2206" lon="-1.69768">
        <ele>17</ele>
        <time>2023-11-01T16:55:46Z</time>
      </trkpt>
      <trkpt lat="47.22042" lon="-1.69772">
        <ele>19</ele>
        <time>2023-11-01T16:56:11Z</time>
      </trkpt>
      <trkpt lat="47.22025" lon="-1.69783">
        <ele>20</ele>
        <time>2023-11-01T16:56:35Z</time>
      </trkpt>
      <trkpt lat="47.22007" lon="-1.69792">
        <ele>22</ele>
        <time>2023-11-01T16:57:01Z</time>
      </trkpt>
      <trkpt lat="47.21989" lon="-1.698">
        <ele>23</ele>
        <time>2023-11-01T16:57:26Z</time>
      </trkpt>
      <trkpt lat="47.21972" lon="-1.69812">
        <ele>23</ele>
        <time>2023-11-01T16:57:51Z</time>
      </trkpt>
      <trkpt lat="47.21955" lon="-1.69823">
        <ele>24</ele>
        <time>2023-11-01T16:58:16Z</time>
      </trkpt>
      <trkpt lat="47.21922" lon="-1.69852">
        <ele>24</ele>
        <time>2023-11-01T16:59:07Z</time>
      </trkpt>
      <trkpt lat="47.21906" lon="-1.69866">
        <ele>23</ele>
        <time>2023-11-01T16:59:32Z</time>
      </trkpt>
      <trkpt lat="47.21893" lon="-1.69885">
        <ele>23</ele>
        <time>2023-11-01T16:59:56Z</time>
      </trkpt>
      <trkpt lat="47.21879" lon="-1.69905">
        <ele>23</ele>
        <time>2023-11-01T17:00:22Z</time>
      </trkpt>
      <trkpt lat="47.21866" lon="-1.69925">
        <ele>22</ele>
        <time>2023-11-01T17:00:47Z</time>
      </trkpt>
      <trkpt lat="47.21851" lon="-1.69941">
        <ele>22</ele>
        <time>2023-11-01T17:01:12Z</time>
      </trkpt>
      <trkpt lat="47.21838" lon="-1.69961">
        <ele>22</ele>
        <time>2023-11-01T17:01:37Z</time>
      </trkpt>
      <trkpt lat="47.21824" lon="-1.69978">
        <ele>22</ele>
        <time>2023-11-01T17:02:01Z</time>
      </trkpt>
      <trkpt lat="47.21805" lon="-1.69974">
        <ele>23</ele>
        <time>2023-11-01T17:02:27Z</time>
      </trkpt>
      <trkpt lat="47.21799" lon="-1.69948">
        <ele>24</ele>
        <time>2023-11-01T17:02:52Z</time>
      </trkpt>
      <trkpt lat="47.21791" lon="-1.69924">
        <ele>26</ele>
        <time>2023-11-01T17:03:16Z</time>
      </trkpt>
      <trkpt lat="47.21785" lon="-1.69898">
        <ele>27</ele>
        <time>2023-11-01T17:03:41Z</time>
      </trkpt>
      <trkpt lat="47.2177" lon="-1.6988">
        <ele>27</ele>
        <time>2023-11-01T17:04:07Z</time>
      </trkpt>
      <trkpt lat="47.21763" lon="-1.698">
        <ele>30</ele>
        <time>2023-11-01T17:05:20Z</time>
      </trkpt>
      <trkpt lat="47.21761" lon="-1.69773">
        <ele>30</ele>
        <time>2023-11-01T17:05:45Z</time>
      </trkpt>
      <trkpt lat="47.21759" lon="-1.69746">
        <ele>31</ele>
        <time>2023-11-01T17:06:09Z</time>
      </trkpt>
      <trkpt lat="47.21757" lon="-1.69691">
        <ele>31</ele>
        <time>2023-11-01T17:06:59Z</time>
      </trkpt>
      <trkpt lat="47.21756" lon="-1.69662">
        <ele>31</ele>
        <time>2023-11-01T17:07:25Z</time>
      </trkpt>
      <trkpt lat="47.21768" lon="-1.69643">
        <ele>32</ele>
        <time>2023-11-01T17:07:49Z</time>
      </trkpt>
      <trkpt lat="47.21767" lon="-1.69616">
        <ele>32</ele>
        <time>2023-11-01T17:08:13Z</time>
      </trkpt>
      <trkpt lat="47.21761" lon="-1.69589">
        <ele>33</ele>
        <time>2023-11-01T17:08:39Z</time>
      </trkpt>
      <trkpt lat="47.21752" lon="-1.69534">
        <ele>31</ele>
        <time>2023-11-01T17:09:31Z</time>
      </trkpt>
      <trkpt lat="47.2175" lon="-1.69506">
        <ele>29</ele>
        <time>2023-11-01T17:09:56Z</time>
      </trkpt>
      <trkpt lat="47.21744" lon="-1.69481">
        <ele>28</ele>
        <time>2023-11-01T17:10:20Z</time>
      </trkpt>
      <trkpt lat="47.2174" lon="-1.69454">
        <ele>27</ele>
        <time>2023-11-01T17:10:45Z</time>
      </trkpt>
      <trkpt lat="47.21735" lon="-1.69427">
        <ele>27</ele>
        <time>2023-11-01T17:11:10Z</time>
      </trkpt>
      <trkpt lat="47.2173" lon="-1.694">
        <ele>26</ele>
        <time>2023-11-01T17:11:36Z</time>
      </trkpt>
      <trkpt lat="47.21727" lon="-1.69374">
        <ele>26</ele>
        <time>2023-11-01T17:12:00Z</time>
      </trkpt>
      <trkpt lat="47.21722" lon="-1.69348">
        <ele>26</ele>
        <time>2023-11-01T17:12:24Z</time>
      </trkpt>
      <trkpt lat="47.21715" lon="-1.69323">
        <ele>26</ele>
        <time>2023-11-01T17:12:49Z</time>
      </trkpt>
      <trkpt lat="47.2171" lon="-1.69297">
        <ele>26</ele>
        <time>2023-11-01T17:13:13Z</time>
      </trkpt>
      <trkpt lat="47.21704" lon="-1.69271">
        <ele>26</ele>
        <time>2023-11-01T17:13:38Z</time>
      </trkpt>
      <trkpt lat="47.21696" lon="-1.69247">
        <ele>27</ele>
        <time>2023-11-01T17:14:02Z</time>
      </trkpt>
      <trkpt lat="47.21679" lon="-1.69256">
        <ele>27</ele>
        <time>2023-11-01T17:14:26Z</time>
      </trkpt>
      <trkpt lat="47.21663" lon="-1.69272">
        <ele>27</ele>
        <time>2023-11-01T17:14:52Z</time>
      </trkpt>
      <trkpt lat="47.21647" lon="-1.69284">
        <ele>26</ele>
        <time>2023-11-01T17:15:16Z</time>
      </trkpt>
      <trkpt lat="47.21629" lon="-1.69287">
        <ele>26</ele>
        <time>2023-11-01T17:15:40Z</time>
      </trkpt>
      <trkpt lat="47.2162" lon="-1.69263">
        <ele>26</ele>
        <time>2023-11-01T17:16:05Z</time>
      </trkpt>
      <trkpt lat="47.21612" lon="-1.69239">
        <ele>26</ele>
        <time>2023-11-01T17:16:29Z</time>
      </trkpt>
      <trkpt lat="47.21606" lon="-1.69212">
        <ele>26</ele>
        <time>2023-11-01T17:16:55Z</time>
      </trkpt>
      <trkpt lat="47.21601" lon="-1.69186">
        <ele>27</ele>
        <time>2023-11-01T17:17:20Z</time>
      </trkpt>
      <trkpt lat="47.21585" lon="-1.69135">
        <ele>28</ele>
        <time>2023-11-01T17:18:11Z</time>
      </trkpt>
      <trkpt lat="47.21578" lon="-1.69111">
        <ele>28</ele>
        <time>2023-11-01T17:18:34Z</time>
      </trkpt>
      <trkpt lat="47.21571" lon="-1.69084">
        <ele>29</ele>
        <time>2023-11-01T17:19:01Z</time>
      </trkpt>
      <trkpt lat="47.21563" lon="-1.69059">
        <ele>30</ele>
        <time>2023-11-01T17:19:26Z</time>
      </trkpt>
      <trkpt lat="47.21557" lon="-1.69033">
        <ele>32</ele>
        <time>2023-11-01T17:19:50Z</time>
      </trkpt>
      <trkpt lat="47.2155" lon="-1.69008">
        <ele>33</ele>
        <time>2023-11-01T17:20:15Z</time>
      </trkpt>
      <trkpt lat="47.21538" lon="-1.68988">
        <ele>33</ele>
        <time>2023-11-01T17:20:39Z</time>
      </trkpt>
      <trkpt lat="47.21524" lon="-1.68968">
        <ele>33</ele>
        <time>2023-11-01T17:21:05Z</time>
      </trkpt>
      <trkpt lat="47.21507" lon="-1.68956">
        <ele>34</ele>
        <time>2023-11-01T17:21:30Z</time>
      </trkpt>
      <trkpt lat="47.21488" lon="-1.68953">
        <ele>33</ele>
        <time>2023-11-01T17:21:56Z</time>
      </trkpt>
      <trkpt lat="47.21469" lon="-1.68952">
        <ele>31</ele>
        <time>2023-11-01T17:22:21Z</time>
      </trkpt>
      <trkpt lat="47.2145" lon="-1.68953">
        <ele>30</ele>
        <time>2023-11-01T17:22:47Z</time>
      </trkpt>
      <trkpt lat="47.21432" lon="-1.68948">
        <ele>28</ele>
        <time>2023-11-01T17:23:11Z</time>
      </trkpt>
      <trkpt lat="47.21414" lon="-1.68942">
        <ele>26</ele>
        <time>2023-11-01T17:23:36Z</time>
      </trkpt>
      <trkpt lat="47.214" lon="-1.68959">
        <ele>25</ele>
        <time>2023-11-01T17:24:00Z</time>
      </trkpt>
      <trkpt lat="47.21386" lon="-1.68976">
        <ele>24</ele>
        <time>2023-11-01T17:24:24Z</time>
      </trkpt>
      <trkpt lat="47.21371" lon="-1.68992">
        <ele>23</ele>
        <time>2023-11-01T17:24:49Z</time>
      </trkpt>
      <trkpt lat="47.21353" lon="-1.68995">
        <ele>21</ele>
        <time>2023-11-01T17:25:13Z</time>
      </trkpt>
      <trkpt lat="47.21346" lon="-1.6897">
        <ele>19</ele>
        <time>2023-11-01T17:25:38Z</time>
      </trkpt>
      <trkpt lat="47.21342" lon="-1.68943">
        <ele>18</ele>
        <time>2023-11-01T17:26:03Z</time>
      </trkpt>
      <trkpt lat="47.21339" lon="-1.68887">
        <ele>17</ele>
        <time>2023-11-01T17:26:53Z</time>
      </trkpt>
      <trkpt lat="47.21338" lon="-1.6886">
        <ele>17</ele>
        <time>2023-11-01T17:27:18Z</time>
      </trkpt>
      <trkpt lat="47.21334" lon="-1.68833">
        <ele>16</ele>
        <time>2023-11-01T17:27:43Z</time>
      </trkpt>
      <trkpt lat="47.21332" lon="-1.68806">
        <ele>15</ele>
        <time>2023-11-01T17:28:08Z</time>
      </trkpt>
      <trkpt lat="47.21328" lon="-1.68779">
        <ele>14</ele>
        <time>2023-11-01T17:28:33Z</time>
      </trkpt>
      <trkpt lat="47.21325" lon="-1.68751">
        <ele>13</ele>
        <time>2023-11-01T17:28:58Z</time>
      </trkpt>
      <trkpt lat="47.21316" lon="-1.68727">
        <ele>12</ele>
        <time>2023-11-01T17:29:23Z</time>
      </trkpt>
      <trkpt lat="47.21305" lon="-1.68703">
        <ele>11</ele>
        <time>2023-11-01T17:29:49Z</time>
      </trkpt>
      <trkpt lat="47.21297" lon="-1.68678">
        <ele>10</ele>
        <time>2023-11-01T17:30:15Z</time>
      </trkpt>
      <trkpt lat="47.21286" lon="-1.68657">
        <ele>10</ele>
        <time>2023-11-01T17:30:39Z</time>
      </trkpt>
      <trkpt lat="47.21271" lon="-1.68639">
        <ele>9</ele>
        <time>2023-11-01T17:31:04Z</time>
      </trkpt>
      <trkpt lat="47.2126" lon="-1.68617">
        <ele>9</ele>
        <time>2023-11-01T17:31:29Z</time>
      </trkpt>
      <trkpt lat="47.21254" lon="-1.68591">
        <ele>9</ele>
        <time>2023-11-01T17:31:54Z</time>
      </trkpt>
      <trkpt lat="47.21265" lon="-1.68568">
        <ele>10</ele>
        <time>2023-11-01T17:32:20Z</time>
      </trkpt>
      <trkpt lat="47.21274" lon="-1.68544">
        <ele>11</ele>
        <time>2023-11-01T17:32:44Z</time>
      </trkpt>
      <trkpt lat="47.21283" lon="-1.6852">
        <ele>12</ele>
        <time>2023-11-01T17:33:09Z</time>
      </trkpt>
      <trkpt lat="47.21289" lon="-1.68495">
        <ele>13</ele>
        <time>2023-11-01T17:33:33Z</time>
      </trkpt>
      <trkpt lat="47.21289" lon="-1.68467">
        <ele>14</ele>
        <time>2023-11-01T17:33:59Z</time>
      </trkpt>
      <trkpt lat="47.21294" lon="-1.68442">
        <ele>16</ele>
        <time>2023-11-01T17:34:22Z</time>
      </trkpt>
      <trkpt lat="47.21313" lon="-1.68438">
        <ele>17</ele>
        <time>2023-11-01T17:34:48Z</time>
      </trkpt>
      <trkpt lat="47.21331" lon="-1.68431">
        <ele>18</ele>
        <time>2023-11-01T17:35:13Z</time>
      </trkpt>
      <trkpt lat="47.2135" lon="-1.68426">
        <ele>19</ele>
        <time>2023-11-01T17:35:39Z</time>
      </trkpt>
      <trkpt lat="47.21365" lon="-1.6841">
        <ele>20</ele>
        <time>2023-11-01T17:36:03Z</time>
      </trkpt>
      <trkpt lat="47.21381" lon="-1.68395">
        <ele>21</ele>
        <time>2023-11-01T17:36:29Z</time>
      </trkpt>
      <trkpt lat="47.21396" lon="-1.68378">
        <ele>22</ele>
        <time>2023-11-01T17:36:54Z</time>
      </trkpt>
      <trkpt lat="47.21423" lon="-1.68338">
        <ele>23</ele>
        <time>2023-11-01T17:37:45Z</time>
      </trkpt>
      <trkpt lat="47.21437" lon="-1.68322">
        <ele>24</ele>
        <time>2023-11-01T17:38:09Z</time>
      </trkpt>
      <trkpt lat="47.21443" lon="-1.68296">
        <ele>24</ele>
        <time>2023-11-01T17:38:33Z</time>
      </trkpt>
    </trkseg>
  </trk>
</gpx>